EHI
0 0 0 0 0 0 0 0 0 0 0 0 0 0 0 0 0 0 0 0 0 0 0 0 0 0 0 0 0 0 0 0 0 0 0 0 0 0 0 0 0 0 0
0 0 0 0 0 0 0 0 0 0 0 0 0 0 0 0 0 0 0 0 0 0 0 0 0 0 0 0 0 0 0 0 0 0 0 0 0 0 0 0 0 0 0
0 0 0 0 0 0 0 0 0 0 0 0 0 0 0 0 0 0 0 0 0 0 0 0 0 0 0 0 0 0 0 0 0 0 0 0 0 0 0 0 0 0 0
0 0 0 0 0 0 0 0 0 0 0 0 0 0 0 0 0 0 0 0 0 0 0 0 0 0 0 0 0 0 0 0 0 0 0 0 0 0 0 0 0 0 0
0 0 0 0 0 0 0 0 0 0 0 0 0 0 0 0 0 0 0 0 0 0 0 0 0 0 0 0 0 0 0 0 0 0 0 0 0 0 0 0 0 0 0
0 0 0 0 0 0 0 0 0 0 0 0 0 0 0 0 0 0 0 0 0 0 0 0 0 0 0 0 0 0 0 0 0 0 0 0 0 0 0 0 0 0 0
0 0 0 0 0 0 0 0 0 0 0 0 0 0 0 0 0 0 0 0 0 0 0 0 0 0 0 0 0 0 0 0 0 0 0 0 0 0 0 0 0 0 0
0 0 0 0 0 0 0 0 0 0 0 0 0 0 0 0 0 0 0 0 0 0 0 0 0 0 0 0 0 0 0 0 0 0 0 0 0 0 0 0 0 0 0
0 0 0 0 0 0 0 0 0 0 0 0 0 0 0 0 0 0 0 0 0 0 0 0 0 0 0 0 0 0 0 0 0 0 0 0 0 0 0 0 0 0 0
0 0 0 0 0 0 0 0 0 0 0 0 0 0 0 0 0 0 0 0 0 0 0 0 0 0 0 0 0 0 0 0 0 0 0 0 0 0 0 0 0 0 0
0 0 0 0 0 0 0 0 0 0 0 0 0 0 0 0 0 0 0 0 0 0 0 0 0 0 0 0 0 0 0 0 0 0 0 0 0 0 0 0 0 0 0
0 0 0 0 0 0 0 0 0 0 0 0 0 0 0 0 0 0 0 0 0 0 0 0 0 0 0 0 0 0 0 0 0 0 0 0 0 0 0 0 0 0 0
0 0 0 0 0 0 0 0 0 0 0 0 0 0 0 0 0 0 0 0 0 0 0 0 0 0 0 0 0 0 0 0 0 0 0 0 0 0 0 0 0 0 0
0 0 0 0 0 0 0 0 0 0 0 0 0 0 0 0 0 0 0 0 0 0 0 0 0 0 0 0 0 0 0 0 0 0 0 0 0 0 0 0 0 0 0
0 0 0 0 0 0 0 0 0 0 0 0 0 0 0 0 0 0 0 0 0 0 0 0 0 0 0 0 0 0 0 0 0 0 0 0 0 0 0 0 0 0 0
0 0 0 0 0 0 0 0 0 0 0 0 0 0 0 0 0 0 0 0 0 0 0 0 0 0 0 0 0 0 0 0 0 0 0 0 0 0 0 0 0 0 0
0 0 0 0 0 0 0 0 0 0 0 0 0 0 0 0 0 0 0 0 0 0 0 0 0 0 0 0 0 0 0 0 0 0 0 0 0 0 0 0 0 0 0
0 0 0 0 0 0 0 0 0 0 0 0 0 0 0 0 0 0 0 0 0 0 0 0 0 0 0 0 0 0 0 0 0 0 0 0 0 0 0 0 0 0 0
0 0 0 0 0 0 0 0 0 0 0 0 0 0 0 0 0 0 0 0 0 0 0 0 0 0 0 0 0 0 0 0 0 0 0 0 0 0 0 0 0 0 0
0 0 0 0 0 0 0 0 0 0 0 0 0 0 0 0 0 0 0 0 0 0 0 0 0 0 0 0 0 0 0 0 0 0 0 0 0 0 0 0 0 0 0
0 0 0 0 0 0 0 0 0 0 0 0 0 0 0 0 0 0 0 0 0 0 0 0 0 0 0 0 0 0 0 0 0 0 0 0 0 0 0 0 0 0 0
0 0 0 0 0 0 0 0 0 0 0 0 0 0 0 0 0 0 0 0 0 0 0 0 0 0 0 0 0 0 0 0 0 0 0 0 0 0 0 0 0 0 0
0 0 0 0 0 0 0 0 0 0 0 0 0 0 0 0 0 0 0 0 0 0 0 0 0 0 0 0 0 0 0 0 0 0 0 0 0 0 0 0 0 0 0
0 0 0 0 0 0 0 0 0 0 0 0 0 0 0 0 0 0 0 0 0 0 0 0 0 0 0 0 0 0 0 0 0 0 0 0 0 0 0 0 0 0 0
0 0 0 0 0 0 0 0 0 0 0 0 0 0 0 0 0 0 0 0 0 0 0 0 0 0 0 0 0 0 0 0 0 0 0 0 0 0 0 0 0 0 0
0 0 0 0 0 0 0 0 0 0 0 0 0 0 0 0 0 0 0 0 0 0 0 0 0 0 0 0 0 0 0 0 0 0 0 0 0 0 0 0 0 0 0
Wind_Speed
4 3 2 3 3 3 4 4 4 5 5 5 5 6 6 6 6 5 5 13 16 17 18 19 19 19 19 19 19 18 18 18 17 17 17 16 16 15 14 14 13 12 12
3 4 3 3 3 3 3 3 4 4 4 4 5 6 6 6 6 7 6 9 17 19 20 21 21 22 22 21 21 21 21 20 20 20 20 19 19 18 17 17 16 15 15
4 3 3 3 3 3 4 3 4 3 3 4 5 6 5 6 7 7 7 6 7 15 21 23 23 24 24 24 24 24 23 23 23 23 22 22 21 21 20 20 19 18 17
5 4 3 3 4 3 3 3 3 3 4 4 4 5 5 5 7 8 7 7 6 7 14 23 24 25 26 26 26 26 26 25 25 25 25 24 24 24 23 23 22 21 20
4 3 3 3 3 3 3 3 3 3 4 5 5 5 5 6 6 7 8 9 9 8 8 15 24 25 26 27 28 28 28 28 28 27 27 27 27 26 26 25 25 24 23
3 3 2 3 3 2 3 3 4 4 4 4 6 7 6 6 7 8 10 9 8 10 9 9 10 15 25 27 28 29 29 30 30 30 29 29 29 29 28 28 27 26 26
2 2 2 3 3 3 4 4 4 4 4 3 4 5 6 9 11 11 10 9 10 10 9 9 8 7 9 22 26 27 29 30 31 31 31 31 31 31 30 30 29 29 28
2 2 3 3 3 3 4 5 4 3 4 3 2 3 5 5 6 8 7 8 9 7 7 9 8 9 7 7 14 25 26 28 30 31 31 31 32 32 32 32 31 31 30
2 2 3 3 3 3 4 5 5 5 5 4 4 4 4 5 5 4 6 5 5 5 6 6 8 9 9 8 8 18 26 28 29 30 30 31 31 32 33 33 33 33 32
1 1 2 3 3 3 4 5 5 4 5 5 4 5 7 6 5 6 4 4 6 6 7 7 7 8 9 8 11 19 25 27 28 29 30 30 31 32 32 33 33 33 33
1 1 1 2 3 3 4 5 5 5 4 5 5 5 6 6 8 9 10 6 6 7 8 9 8 8 9 9 8 15 25 27 28 29 29 29 30 31 32 32 33 33 34
1 1 1 2 3 3 4 5 5 6 6 6 6 5 6 6 6 7 10 9 9 7 7 6 7 7 7 8 11 19 24 27 28 28 28 28 29 30 31 32 32 33 33
2 2 1 2 3 4 5 5 5 6 6 7 7 6 6 7 7 7 10 12 12 8 7 6 7 7 8 7 8 18 22 26 27 27 27 27 28 28 29 30 31 32 33
2 3 3 4 5 5 5 5 5 6 6 7 9 8 7 7 7 7 8 10 14 12 7 8 6 7 7 6 9 15 13 23 25 26 26 26 26 27 28 29 30 31 32
3 4 4 5 6 6 6 6 5 7 6 7 7 8 8 7 7 7 7 7 11 17 15 8 5 5 6 6 10 9 8 17 24 24 24 25 26 27 28 28 29 30 30
4 5 5 6 6 6 7 6 6 7 7 7 6 8 8 7 6 6 7 7 8 12 18 9 6 6 7 9 16 12 9 22 24 25 26 25 26 27 27 28 28 29 29
5 5 6 6 7 7 7 7 7 7 8 8 8 8 9 8 7 6 6 7 8 8 16 14 6 6 8 9 10 9 9 10 10 24 27 27 27 27 27 27 28 28 29
5 6 7 7 8 8 7 7 8 8 8 9 8 8 9 9 9 8 7 8 8 8 12 19 11 6 8 8 9 10 10 10 8 20 27 28 28 27 27 27 27 27 27
6 7 7 8 8 8 8 8 8 9 9 9 9 9 10 10 12 10 10 10 9 10 9 13 15 8 6 7 8 10 11 9 11 15 22 25 26 27 27 27 26 26 26
7 8 8 8 9 9 9 9 9 9 9 10 10 11 11 12 13 13 12 12 11 11 10 12 14 11 8 7 7 8 10 7 9 10 15 18 21 25 25 25 25 25 24
8 8 9 9 9 8 8 9 8 9 10 10 10 11 12 17 22 19 15 11 10 11 11 12 13 12 10 7 8 7 10 8 8 8 8 9 9 8 10 17 21 22 23
8 9 9 9 9 9 17 23 18 10 9 9 10 10 12 16 20 25 27 26 21 14 11 11 12 13 12 10 8 8 10 11 10 5 7 9 7 8 7 7 16 22 23
8 9 9 9 9 11 21 25 24 15 10 9 10 10 12 13 19 12 18 25 23 26 25 16 14 14 14 11 10 12 11 12 12 5 5 9 6 8 6 9 19 21 21
8 8 9 9 9 12 23 25 25 15 10 10 11 12 13 12 13 16 13 12 13 14 17 14 12 13 13 12 12 13 13 13 11 8 7 10 7 7 8 6 16 20 20
8 8 8 9 10 12 21 25 25 10 9 11 11 12 14 12 20 27 18 14 14 12 17 24 25 23 25 26 20 11 9 10 10 7 6 7 6 6 6 6 10 19 20
9 9 9 9 10 10 19 24 25 9 9 10 9 10 18 20 25 27 17 13 15 13 12 13 16 18 16 17 22 13 8 9 9 7 5 6 5 4 4 5 5 6 8
Wind_Direction
176 187 198 202 204 201 199 209 218 233 238 234 228 227 234 238 238 232 234 244 249 254 259 261 261 260 259 259 259 258 256 253 252 251 250 249 249 248 248 248 247 248 248
184 190 207 214 218 218 220 217 225 237 242 239 240 238 237 237 238 238 232 242 247 251 255 258 260 260 258 258 257 257 256 254 252 250 249 248 247 246 246 246 246 246 246
199 200 209 218 222 223 228 233 244 254 258 257 256 254 252 246 242 241 239 232 239 247 252 256 258 259 259 258 257 256 255 255 254 252 250 248 246 245 245 244 243 243 244
205 211 214 222 226 228 227 230 233 247 258 259 256 253 252 250 248 244 241 238 232 236 248 253 257 259 259 260 259 257 256 255 254 253 251 249 247 245 244 244 243 242 242
209 215 221 228 233 237 235 234 234 233 251 261 266 264 259 258 258 256 250 243 238 235 233 250 256 259 261 262 262 261 259 256 254 253 252 250 248 246 244 243 242 242 241
222 224 230 240 245 249 250 244 246 246 247 256 272 274 268 264 262 259 257 252 245 241 237 239 247 256 259 263 265 265 264 261 258 255 253 251 250 248 246 244 243 241 241
234 235 241 251 254 253 251 249 251 261 267 269 284 289 274 256 253 253 250 249 246 242 237 237 236 235 251 258 264 266 267 266 264 260 257 254 252 250 248 246 244 242 241
236 227 228 236 242 251 261 257 251 259 264 249 249 300 305 303 268 255 249 243 244 240 238 240 239 238 235 237 250 260 267 269 269 267 264 260 256 253 251 248 246 244 242
246 236 236 238 244 240 248 251 244 243 254 250 214 218 261 275 311 296 292 284 268 253 247 246 244 242 238 232 239 254 260 266 269 270 269 267 263 259 255 251 249 247 244
216 236 245 251 254 253 254 253 246 239 242 253 248 228 231 236 270 293 277 283 297 287 277 265 255 247 242 237 238 246 256 262 266 269 271 271 269 265 261 256 252 249 247
190 229 248 264 265 260 259 260 262 253 240 241 241 242 250 251 244 262 278 268 259 255 259 259 256 251 245 238 233 243 254 261 265 268 270 271 271 270 267 264 259 254 250
318 294 264 269 270 267 265 262 258 257 252 251 248 241 239 241 246 252 269 274 272 262 257 260 262 259 254 247 243 248 253 259 263 266 269 270 271 272 271 269 266 262 258
324 316 321 287 277 267 264 261 259 257 253 253 251 251 247 247 245 252 266 276 278 273 263 260 258 263 264 255 252 251 254 259 262 265 267 269 270 271 271 271 269 267 264
293 300 300 286 280 277 273 267 261 257 255 252 255 254 253 252 249 248 256 273 283 281 262 258 257 261 270 270 266 261 260 263 265 265 267 269 270 270 269 269 268 267 265
286 291 290 285 282 280 276 273 264 262 260 256 256 256 256 255 251 251 251 250 269 284 281 263 256 261 274 279 281 277 265 268 272 270 269 269 270 270 270 268 266 265 264
294 293 288 285 284 283 281 278 275 270 270 266 261 263 263 263 259 254 253 255 252 267 280 273 250 250 263 274 280 281 274 278 276 275 274 273 272 270 270 269 267 264 262
295 293 291 290 288 285 284 283 281 283 283 282 282 280 276 275 272 268 265 263 261 261 275 281 262 255 255 262 273 272 272 269 270 274 275 275 273 272 270 269 267 265 262
300 295 293 290 288 288 287 286 287 288 286 287 288 290 290 293 287 283 278 273 271 266 272 283 283 267 258 260 264 266 273 271 264 271 273 273 273 272 270 269 267 265 263
296 293 292 290 289 287 285 281 279 279 277 278 281 283 285 287 285 282 278 276 274 275 273 279 284 278 268 265 269 270 269 270 269 272 273 273 272 272 271 270 268 266 264
292 290 287 284 282 281 280 279 277 274 273 272 271 272 274 274 275 275 274 271 270 270 268 271 278 279 273 261 261 268 271 261 265 268 270 270 270 271 270 270 269 268 265
286 283 282 281 279 280 279 278 274 269 268 269 270 269 271 277 278 280 279 272 265 265 267 268 272 276 274 267 264 263 269 270 262 256 261 262 265 262 264 268 269 271 268
283 281 280 279 280 283 293 297 297 286 276 276 280 278 279 284 284 285 286 287 284 279 278 274 277 276 277 272 267 264 268 273 274 235 246 258 251 253 249 243 258 263 265
282 282 281 280 281 285 296 300 300 298 286 283 283 284 286 284 290 282 283 285 285 283 281 277 276 275 277 274 270 270 266 266 269 255 254 265 253 256 250 253 259 260 261
281 282 284 284 285 290 300 302 303 299 286 282 280 280 281 280 279 283 276 271 267 268 270 271 263 264 266 265 258 262 267 268 265 254 241 262 255 251 250 244 254 256 259
285 284 284 286 287 292 300 303 303 292 286 283 281 281 285 284 287 292 290 282 279 274 276 274 270 269 268 270 267 262 256 262 268 259 223 242 250 249 244 241 247 252 254
283 284 284 284 286 290 300 304 304 294 289 287 283 279 286 289 292 294 290 284 283 282 275 274 273 274 274 273 275 267 258 263 268 266 222 222 236 227 249 239 230 237 248